Satellite-Ground Cal/Val Site Overpasses Predictions

Prediction of Satellite NPP Overpassing Cal/Val Site: Antarctic Dome C

Ground Cal/Val Site Location: Latitude: -75.10, Longitude: 123.35; Satellite-Ground Site NADIR distance within 100 km.

Table of predicted overpasses for the next 14.0 days since TLE Epoch: 10/31/2020
Interval Starting Time Ending Time Minimum Distance Time Minimum Distance (km)
1 10/31/2020 14:48:35 10/31/2020 14:49:03 10/31/2020 14:48:49 17.26
2 11/02/2020 07:31:23 11/02/2020 07:31:52 11/02/2020 07:31:38 3.36
3 11/05/2020 14:54:49 11/05/2020 14:55:17 11/05/2020 14:55:03 19.07
4 11/06/2020 14:36:06 11/06/2020 14:36:20 11/06/2020 14:36:13 87.88
5 11/07/2020 07:37:38 11/07/2020 07:38:05 11/07/2020 07:37:51 37.36
6 11/08/2020 07:18:51 11/08/2020 07:19:10 11/08/2020 07:19:01 72.84
7 11/10/2020 15:01:04 11/10/2020 15:01:28 11/10/2020 15:01:16 56.08
8 11/11/2020 14:42:14 11/11/2020 14:42:39 11/11/2020 14:42:26 53.08
9 11/12/2020 07:43:55 11/12/2020 07:44:15 11/12/2020 07:44:05 72.43
